LA9NKA Weather Reports


time (UTC)temp
F
wind
direction
speed
knots
gust
knots
rain 1hr
in
rain 24hr
in
rain mn
in
humidity
%
barometer
mb
20260507131017 0 278 3.5 7.0 0.00 0.01 0.01 86 1016.6
20260507130017 0 282 5.2 8.7 0.00 0.01 0.01 86 1016.8
20260507125046 0 266 4.3 7.0 0.00 0.01 0.01 86 1016.7
20260507124045 0 272 4.3 7.0 0.00 0.01 0.01 86 1016.7
20260507123044 0 273 4.3 6.1 0.00 0.01 0.01 86 1016.8
20260507122044 0 282 3.5 7.0 0.00 0.01 0.01 86 1016.8
20260507121043 0 268 1.7 3.5 0.00 0.01 0.01 86 1016.9
20260507120042 0 270 2.6 4.3 0.00 0.01 0.01 86 1016.9
20260507115041 0 280 1.7 4.3 0.00 0.01 0.01 86 1016.9
20260507114040 0 215 1.7 4.3 0.00 0.01 0.01 86 1017.0
20260507113039 0 227 1.7 3.5 0.00 0.01 0.01 86 1017.1
20260507112039 0 168 1.7 3.5 0.00 0.01 0.01 86 1017.2
20260507111038 0 206 2.6 4.3 0.00 0.01 0.01 86 1017.1
20260507110037 0 222 1.7 3.5 0.00 0.01 0.01 86 1017.2
20260507105036 0 199 2.6 4.3 0.00 0.01 0.01 86 1017.1
20260507104033 0 239 1.7 4.3 0.00 0.01 0.01 86 1017.0
20260507103033 0 225 1.7 4.3 0.00 0.01 0.01 86 1017.0
20260507102032 0 213 2.6 6.1 0.00 0.01 0.01 86 1017.0
20260507101029 0 229 2.6 4.3 0.00 0.01 0.01 86 1017.0
20260507100028 0 187 2.6 4.3 0.00 0.01 0.01 86 1016.9
20260507095057 0 222 0.0 0.9 0.00 0.01 0.01 86 1016.9
20260507094026 0 112 1.7 3.5 0.00 0.01 0.01 86 1016.8
20260507093025 0 128 1.7 3.5 0.00 0.01 0.01 86 1016.8
20260507092025 0 125 1.7 3.5 0.00 0.01 0.01 86 1016.8
20260507091024 0 100 1.7 3.5 0.00 0.01 0.01 86 1016.8
20260507090023 0 102 1.7 3.5 0.00 0.01 0.01 86 1016.8
20260507085052 0 81 1.7 3.5 0.00 0.01 0.01 86 1016.8
20260507084021 0 88 1.7 3.5 0.00 0.01 0.01 86 1016.8
20260507083118 0 96 0.9 4.3 0.00 0.02 0.01 86 1016.7
20260507082047 0 127 2.6 6.1 0.00 0.03 0.01 86 1016.6
20260507081046 0 119 1.7 4.3 0.00 0.04 0.01 86 1016.5
20260507080045 0 118 1.7 4.3 0.00 0.06 0.01 86 1016.5
20260507075044 0 99 1.7 3.5 0.00 0.09 0.01 86 1016.4
20260507074041 0 104 0.9 2.6 0.00 0.10 0.01 86 1016.4
20260507073040 0 95 1.7 3.5 0.00 0.11 0.01 86 1016.4
20260507072039 0 93 1.7 3.5 0.00 0.12 0.01 86 1016.4
20260507071038 0 98 0.9 3.5 0.00 0.12 0.01 86 1016.3
20260507070037 0 103 1.7 4.3 0.00 0.12 0.01 86 1016.3
20260507065037 0 115 1.7 3.5 0.00 0.12 0.01 86 1016.3
20260507064035 0 86 1.7 2.6 0.00 0.12 0.01 86 1016.3
20260507063032 0 92 1.7 2.6 0.00 0.12 0.01 86 1016.2
20260507062031 0 105 1.7 3.5 0.00 0.12 0.01 86 1016.2
20260507061030 0 126 1.7 3.5 0.00 0.12 0.01 86 1016.2
20260507060029 0 90 0.9 2.6 0.00 0.12 0.01 86 1016.1
20260507055129 0 92 1.7 2.6 0.00 0.12 0.01 86 1016.1
20260507054027 0 99 0.9 2.6 0.00 0.12 0.01 86 1016.1
20260507053057 0 90 0.9 2.6 0.00 0.12 0.01 86 1016.0
20260507052055 0 111 0.9 2.6 0.00 0.12 0.01 86 1016.0
20260507051125 0 75 0.9 2.6 0.00 0.12 0.01 86 1015.9
20260507050024 0 68 0.9 2.6 0.00 0.12 0.01 86 1015.8
20260507045323 0 68 0.0 0.9 0.00 0.12 0.01 86 1015.8
20260507044053 0 67 0.0 0.9 0.00 0.12 0.01 86 1015.7
20260507043122 0 68 0.0 0.9 0.00 0.12 0.01 86 1015.7
20260507042221 0 68 0.0 0.9 0.00 0.12 0.01 86 1015.7
20260507041020 0 68 0.9 2.6 0.00 0.12 0.01 86 1015.6
20260507040019 0 68 0.9 0.9 0.00 0.12 0.01 86 1015.6
20260507035048 0 68 0.9 0.9 0.00 0.12 0.01 86 1015.5
20260507034048 0 68 0.0 0.9 0.00 0.12 0.01 86 1015.6
20260507033047 0 68 0.0 0.9 0.00 0.12 0.01 86 1015.5
20260507032116 0 45 0.0 0.9 0.00 0.13 0.01 86 1015.5
20260507031046 0 0.0 0.0 0.00 0.13 0.01 86 1015.5
20260507030214 0 0.0 0.0 0.00 0.13 0.01 86 1015.4
20260507025536 0 45 0.0 0.9 0.00 0.13 0.01 86 1015.5
20260507024535 0 71 0.9 2.6 0.00 0.13 0.01 86 1015.4
20260507023604 0 0.0 0.0 0.00 0.13 0.01 86 1015.3
20260507023004 0 0.0 0.0 0.00 0.13 0.01 86 1015.3
20260507021829 0 0.0 0.0 0.00 0.13 0.01 86 1015.2
20260507020529 0 113 0.0 0.9 0.00 0.13 0.01 86 1015.1
20260507015627 0 113 0.0 0.9 0.00 0.13 0.01 86 1015.1
20260507014927 0 0.0 0.0 0.00 0.13 0.01 86 1015.1
20260507012557 0 113 0.0 0.9 0.00 0.13 0.01 86 1015.1
20260507011555 0 113 0.9 0.9 0.00 0.13 0.01 86 1015.1
20260507010554 0 128 0.9 2.6 0.00 0.13 0.01 86 1015.1
20260507005553 0 113 0.0 0.9 0.00 0.13 0.01 86 1015.1
20260507004552 0 129 0.9 2.6 0.00 0.13 0.01 86 1015.1
20260507003522 0 135 0.9 2.6 0.00 0.13 0.01 86 1015.0
20260507002521 0 0.0 0.0 0.00 0.13 0.01 86 1015.0
20260507002020 0 158 0.0 0.9 0.00 0.13 0.01 86 1015.1
20260507000650 0 204 0.9 2.6 0.00 0.13 0.01 86 1015.1
20260506235705 0 0.0 0.0 0.00 0.13 0.01 86 1015.2
20260506234604 0 0.0 0.0 0.00 0.13 0.01 86 1015.2
20260506233533 0 248 0.0 0.9 0.00 0.13 0.01 86 1015.3
20260506232533 0 237 0.9 3.5 0.01 0.13 0.01 86 1015.2
20260506231559 0 238 0.9 2.6 0.01 0.13 0.01 86 1015.2
20260506230528 0 225 0.0 0.9 0.01 0.13 0.01 86 1015.2
20260506225657 0 239 1.7 3.5 0.01 0.13 0.01 86 1015.1
20260506224556 0 240 0.9 3.5 0.01 0.13 0.01 86 1015.0
20260506223656 0 198 0.9 3.5 0.01 0.13 0.01 86 1015.0
20260506222623 0 275 1.7 6.1 0.00 0.12 0.00 86 1015.1
20260506221521 0 0.0 0.0 0.00 0.12 0.00 86 1015.0
20260506220648 0 293 0.0 0.9 0.00 0.12 0.00 86 1015.0
20260506215517 0 0.0 0.0 0.00 0.12 0.12 86 1014.8
20260506214516 0 0.0 0.0 0.00 0.12 0.12 86 1014.8
20260506213616 0 0.0 0.0 0.00 0.12 0.12 86 1014.8
20260506212045 0 0.0 0.0 0.00 0.12 0.12 86 1014.7
20260506211114 0 0.0 0.0 0.00 0.12 0.12 86 1014.8
20260506210343 0 0.0 0.0 0.00 0.12 0.12 86 1014.7
20260506205612 0 293 0.0 0.9 0.00 0.12 0.12 86 1014.8
20260506204641 0 0.0 0.0 0.00 0.12 0.12 86 1014.7
20260506203537 0 293 0.0 0.9 0.00 0.12 0.12 86 1014.7
20260506202607 0 0.0 0.0 0.00 0.12 0.12 86 1014.7
20260506202006 0 248 0.0 0.9 0.00 0.12 0.12 86 1014.8
20260506200535 0 260 0.9 2.6 0.00 0.12 0.12 86 1014.8
20260506195534 0 270 0.0 0.9 0.00 0.12 0.12 86 1014.8
20260506194533 0 270 0.0 0.9 0.00 0.12 0.12 86 1014.7
20260506193733 0 255 0.9 2.6 0.00 0.12 0.12 86 1014.7
20260506192801 0 0.0 0.0 0.00 0.12 0.12 86 1014.6
20260506191558 0 293 0.0 0.9 0.00 0.12 0.12 86 1014.6
20260506190657 0 293 0.0 0.9 0.00 0.12 0.12 86 1014.6
20260506185653 0 293 0.0 0.9 0.00 0.12 0.12 86 1014.5
20260506184552 0 308 0.9 2.6 0.00 0.12 0.12 86 1014.4
20260506183550 0 274 1.7 3.5 0.00 0.12 0.12 86 1014.3
20260506182519 0 279 1.7 4.3 0.00 0.12 0.12 86 1014.3
20260506181548 0 297 0.9 3.5 0.00 0.12 0.12 86 1014.3
20260506180647 0 281 1.7 6.1 0.00 0.12 0.12 86 1014.3
20260506175644 0 351 0.9 2.6 0.00 0.12 0.12 86 1014.3
20260506174543 0 0 0.9 2.6 0.00 0.12 0.12 86 1014.3
20260506173539 0 349 0.9 2.6 0.00 0.12 0.12 86 1014.2
20260506172609 0 354 0.9 3.5 0.00 0.12 0.12 86 1014.3
20260506171638 0 9 0.9 3.5 0.00 0.12 0.12 86 1014.2
20260506170635 0 339 0.9 3.5 0.00 0.12 0.12 86 1014.3
20260506165534 0 311 1.7 8.7 0.00 0.12 0.12 86 1014.2
20260506164533 0 298 3.5 8.7 0.00 0.12 0.12 86 1014.2
20260506163532 0 283 3.5 7.0 0.00 0.12 0.12 86 1014.1
20260506162532 0 270 6.1 9.6 0.00 0.12 0.12 86 1014.2
20260506161531 0 275 6.1 10.4 0.00 0.12 0.12 86 1014.2
20260506160528 0 278 7.8 13.0 0.00 0.12 0.12 86 1014.2
20260506155627 0 273 7.0 12.2 0.00 0.12 0.12 86 1014.1
20260506154526 0 273 7.8 13.0 0.00 0.12 0.12 86 1014.0
20260506153552 0 282 5.2 9.6 0.00 0.12 0.12 86 1014.0
20260506152549 0 275 7.0 10.4 0.00 0.12 0.12 86 1014.0
20260506151545 0 283 5.2 9.6 0.00 0.12 0.12 86 1014.1
20260506150542 0 273 5.2 9.6 0.00 0.12 0.12 86 1014.1
20260506145541 0 287 5.2 10.4 0.00 0.12 0.12 86 1014.1
20260506144640 0 272 6.1 8.7 0.00 0.12 0.12 86 1014.2
20260506143539 0 279 6.1 10.4 0.00 0.12 0.12 86 1014.2
20260506142538 0 271 5.2 10.4 0.00 0.12 0.12 86 1014.3
20260506141638 0 272 6.1 10.4 0.00 0.12 0.12 86 1014.2
20260506140537 0 281 4.3 10.4 0.00 0.12 0.12 86 1014.1
20260506135536 0 283 4.3 9.6 0.00 0.12 0.12 86 1014.2
20260506134532 0 281 6.1 10.4 0.00 0.12 0.12 86 1014.2
20260506133632 0 295 3.5 8.7 0.00 0.12 0.12 86 1014.2
20260506132531 0 289 5.2 8.7 0.00 0.12 0.12 86 1014.2
20260506131530 0 288 4.3 8.7 0.00 0.13 0.12 86 1014.3